Time,TemperatureF,DewpointF,PressureIn,WindDirection,WindDirectionDegrees,WindSpeedMPH,WindSpeedGustMPH,Humidity,HourlyPrecipIn,Conditions,Clouds,dailyrainin,SoftwareType,DateUTC
2013-06-26 00:22:00,81.0,76.0,30.09,East,82,1.0,3.0,85,0.00,,,0.00,,2013-06-26 04:22:00,
2013-06-26 00:33:00,81.0,76.0,30.09,East,82,1.0,3.0,85,0.00,,,0.00,,2013-06-26 04:33:00,
2013-06-26 00:43:00,81.0,76.0,30.09,ESE,114,0.0,1.0,86,0.00,,,0.00,,2013-06-26 04:43:00,
2013-06-26 00:53:00,81.0,76.0,30.09,East,94,0.0,1.0,86,0.00,,,0.00,,2013-06-26 04:53:00,
2013-06-26 01:34:00,82.0,77.0,30.08,ESE,108,0.0,3.0,85,0.00,,,0.00,,2013-06-26 05:34:00,
2013-06-26 01:43:00,82.0,77.0,30.07,East,98,1.0,5.0,84,0.00,,,0.00,,2013-06-26 05:43:00,
2013-06-26 02:34:00,80.0,75.0,30.06,NE,54,1.0,6.0,86,0.00,,,0.00,,2013-06-26 06:34:00,
2013-06-26 02:43:00,79.0,75.0,30.05,East,82,1.0,6.0,89,0.02,,,0.02,,2013-06-26 06:43:00,
2013-06-26 02:53:00,79.0,76.0,30.05,East,89,0.0,2.0,91,0.02,,,0.02,,2013-06-26 06:53:00,
2013-06-26 03:01:00,79.0,76.0,30.04,ESE,121,0.0,3.0,91,0.02,,,0.02,,2013-06-26 07:01:00,
2013-06-26 03:11:00,79.0,76.0,30.04,ESE,108,0.0,3.0,91,0.02,,,0.02,,2013-06-26 07:11:00,
2013-06-26 03:43:00,79.0,76.0,30.03,East,91,0.0,3.0,92,0.00,,,0.02,,2013-06-26 07:43:00,
2013-06-26 03:53:00,79.0,76.0,30.03,East,86,0.0,3.0,92,0.00,,,0.02,,2013-06-26 07:53:00,
2013-06-26 04:01:00,79.0,76.0,30.03,East,101,0.0,2.0,92,0.00,,,0.02,,2013-06-26 08:01:00,
2013-06-26 04:22:00,79.0,76.0,30.03,ESE,123,0.0,2.0,91,0.00,,,0.02,,2013-06-26 08:22:00,
2013-06-26 04:33:00,79.0,75.0,30.03,East,96,0.0,2.0,89,0.00,,,0.02,,2013-06-26 08:33:00,
2013-06-26 04:42:00,80.0,76.0,30.03,ESE,123,0.0,4.0,87,0.00,,,0.02,,2013-06-26 08:42:00,
2013-06-26 04:52:00,80.0,76.0,30.04,East,91,0.0,2.0,87,0.00,,,0.02,,2013-06-26 08:52:00,
2013-06-26 05:01:00,80.0,76.0,30.04,East,94,0.0,1.0,87,0.00,,,0.02,,2013-06-26 09:01:00,
2013-06-26 05:43:00,79.0,76.0,30.04,ESE,110,0.0,2.0,90,0.01,,,0.03,,2013-06-26 09:43:00,
2013-06-26 07:44:00,80.0,76.0,30.06,SE,125,0.0,2.0,87,0.00,,,0.03,,2013-06-26 11:44:00,
2013-06-26 07:52:00,81.0,77.0,30.06,ESE,104,0.0,3.0,87,0.00,,,0.03,,2013-06-26 11:52:00,
2013-06-26 08:42:00,85.0,77.0,30.06,SSE,162,1.0,5.0,78,0.00,,,0.03,,2013-06-26 12:42:00,
2013-06-26 08:52:00,85.0,77.0,30.07,ENE,77,1.0,6.0,77,0.00,,,0.03,,2013-06-26 12:52:00,
2013-06-26 09:34:00,86.0,78.0,30.08,SSE,165,1.0,5.0,77,0.00,,,0.03,,2013-06-26 13:34:00,
2013-06-26 09:42:00,86.0,77.0,30.08,East,84,2.0,5.0,75,0.00,,,0.03,,2013-06-26 13:42:00,
2013-06-26 10:02:00,87.0,77.0,30.08,East,93,1.0,8.0,72,0.00,,,0.03,,2013-06-26 14:02:00,
2013-06-26 10:34:00,86.0,76.0,30.08,ESE,106,3.0,11.0,72,0.00,,,0.03,,2013-06-26 14:34:00,
2013-06-26 10:42:00,86.0,76.0,30.08,ESE,103,3.0,8.0,72,0.00,,,0.03,,2013-06-26 14:42:00,
2013-06-26 10:53:00,87.0,76.0,30.08,SE,146,2.0,8.0,71,0.00,,,0.03,,2013-06-26 14:53:00,
2013-06-26 11:02:00,88.0,77.0,30.08,ESE,120,1.0,10.0,69,0.00,,,0.03,,2013-06-26 15:02:00,
2013-06-26 11:11:00,88.0,77.0,30.08,SW,221,3.0,11.0,69,0.00,,,0.03,,2013-06-26 15:11:00,
2013-06-26 11:34:00,89.0,76.0,30.08,ENE,63,4.0,6.0,65,0.00,,,0.03,,2013-06-26 15:34:00,
2013-06-26 11:44:00,89.0,76.0,30.08,ENE,58,3.0,8.0,66,0.00,,,0.03,,2013-06-26 15:44:00,
2013-06-26 11:53:00,89.0,76.0,30.08,ESE,105,1.0,8.0,66,0.00,,,0.03,,2013-06-26 15:53:00,
2013-06-26 12:34:00,90.0,75.0,30.08,ESE,109,3.0,6.0,62,0.00,,,0.03,,2013-06-26 16:34:00,
2013-06-26 13:23:00,90.0,75.0,30.09,East,89,2.0,12.0,61,0.00,,,0.03,,2013-06-26 17:23:00,
2013-06-26 13:43:00,91.0,74.0,30.09,ESE,105,5.0,8.0,58,0.00,,,0.03,,2013-06-26 17:43:00,
2013-06-26 13:52:00,91.0,75.0,30.09,ESE,104,1.0,8.0,60,0.00,,,0.03,,2013-06-26 17:52:00,
2013-06-26 14:43:00,92.0,73.0,30.06,ESE,104,3.0,9.0,55,0.00,,,0.03,,2013-06-26 18:43:00,
2013-06-26 15:11:00,92.0,73.0,30.06,NE,41,4.0,11.0,54,0.00,,,0.03,,2013-06-26 19:11:00,
2013-06-26 15:33:00,91.0,73.0,30.08,ESE,105,3.0,10.0,56,0.00,,,0.03,,2013-06-26 19:33:00,
2013-06-26 16:01:00,91.0,74.0,30.07,ESE,105,4.0,8.0,57,0.00,,,0.03,,2013-06-26 20:01:00,
2013-06-26 16:22:00,90.0,73.0,30.06,ENE,70,5.0,10.0,57,0.00,,,0.03,,2013-06-26 20:22:00,
2013-06-26 16:33:00,90.0,73.0,30.06,ENE,70,5.0,10.0,57,0.00,,,0.03,,2013-06-26 20:33:00,
2013-06-26 16:43:00,90.0,75.0,30.05,East,94,3.0,8.0,61,0.00,,,0.03,,2013-06-26 20:43:00,
2013-06-26 16:52:00,90.0,74.0,30.05,East,82,2.0,8.0,60,0.00,,,0.03,,2013-06-26 20:52:00,
2013-06-26 17:02:00,89.0,74.0,30.05,ESE,108,3.0,12.0,62,0.00,,,0.03,,2013-06-26 21:02:00,
2013-06-26 17:33:00,88.0,75.0,30.05,SW,228,2.0,11.0,66,0.00,,,0.03,,2013-06-26 21:33:00,
2013-06-26 17:43:00,88.0,76.0,30.05,ENE,60,1.0,7.0,68,0.00,,,0.03,,2013-06-26 21:43:00,
2013-06-26 18:43:00,86.0,75.0,30.04,East,91,3.0,7.0,71,0.00,,,0.03,,2013-06-26 22:43:00,
2013-06-26 18:52:00,85.0,75.0,30.04,East,95,3.0,9.0,71,0.00,,,0.03,,2013-06-26 22:52:00,
2013-06-26 19:11:00,85.0,75.0,30.04,East,91,2.0,6.0,71,0.00,,,0.03,,2013-06-26 23:11:00,
2013-06-26 19:34:00,84.0,74.0,30.04,East,89,1.0,6.0,73,0.00,,,0.03,,2013-06-26 23:34:00,
2013-06-26 19:43:00,84.0,74.0,30.04,East,95,1.0,5.0,72,0.00,,,0.03,,2013-06-26 23:43:00,
2013-06-26 19:52:00,84.0,74.0,30.04,SE,143,1.0,6.0,72,0.00,,,0.03,,2013-06-26 23:52:00,
2013-06-26 20:01:00,84.0,75.0,30.04,East,79,2.0,7.0,74,0.00,,,0.03,,2013-06-27 00:01:00,
2013-06-26 20:12:00,84.0,75.0,30.05,ESE,113,2.0,7.0,74,0.00,,,0.03,,2013-06-27 00:12:00,
2013-06-26 20:33:00,83.0,74.0,30.07,ESE,108,1.0,5.0,74,0.00,,,0.03,,2013-06-27 00:33:00,
2013-06-26 20:42:00,83.0,74.0,30.08,ENE,75,0.0,5.0,74,0.00,,,0.03,,2013-06-27 00:42:00,
2013-06-26 20:53:00,83.0,74.0,30.08,ESE,108,0.0,4.0,74,0.00,,,0.03,,2013-06-27 00:53:00,
2013-06-26 21:01:00,83.0,74.0,30.08,East,79,0.0,2.0,75,0.00,,,0.03,,2013-06-27 01:01:00,
2013-06-26 21:11:00,83.0,74.0,30.08,East,79,0.0,2.0,75,0.00,,,0.03,,2013-06-27 01:11:00,
2013-06-26 21:21:00,83.0,74.0,30.08,SSE,162,0.0,2.0,75,0.00,,,0.03,,2013-06-27 01:21:00,
2013-06-26 21:32:00,83.0,75.0,30.07,ESE,112,0.0,3.0,77,0.00,,,0.03,,2013-06-27 01:32:00,
2013-06-26 21:43:00,83.0,75.0,30.07,ESE,105,0.0,3.0,77,0.00,,,0.03,,2013-06-27 01:43:00,
2013-06-26 21:53:00,83.0,75.0,30.07,ESE,110,0.0,3.0,78,0.00,,,0.03,,2013-06-27 01:53:00,
2013-06-26 22:01:00,83.0,75.0,30.07,SE,132,0.0,2.0,78,0.00,,,0.03,,2013-06-27 02:01:00,
2013-06-26 22:11:00,83.0,75.0,30.07,ESE,118,0.0,2.0,78,0.00,,,0.03,,2013-06-27 02:11:00,
2013-06-26 22:32:00,83.0,75.0,30.07,SSE,162,0.0,3.0,78,0.00,,,0.03,,2013-06-27 02:32:00,
2013-06-26 22:42:00,82.0,75.0,30.07,East,89,0.0,2.0,79,0.00,,,0.03,,2013-06-27 02:42:00,
2013-06-26 22:52:00,82.0,75.0,30.07,East,89,0.0,2.0,79,0.00,,,0.03,,2013-06-27 02:52:00,
2013-06-26 23:11:00,82.0,75.0,30.07,ESE,118,0.0,3.0,80,0.00,,,0.03,,2013-06-27 03:11:00,
2013-06-26 23:21:00,82.0,75.0,30.07,SE,134,0.0,3.0,80,0.00,,,0.03,,2013-06-27 03:21:00,
2013-06-26 23:33:00,82.0,75.0,30.07,ESE,116,0.0,2.0,80,0.00,,,0.03,,2013-06-27 03:33:00,
2013-06-26 23:42:00,82.0,75.0,30.07,ESE,116,0.0,2.0,80,0.00,,,0.03,,2013-06-27 03:42:00,
2013-06-26 23:52:00,82.0,75.0,30.06,East,101,1.0,4.0,80,0.00,,,0.03,,2013-06-27 03:52:00,